Погода в Ла Фортуна

Коста-Рика     10°28′35″N   84°37′52″W
темп.,
°C
ветер,
м/с
пор.,
м/с
влажн.,
%
обл.,
%
осадки,
мм/ч
давл.,
гПа
погр.,
м
12 апреля, пн
пн1200:00+21юв1197100 1.9 101032
03:00+21в0098100 0.0 100918
06:00+21в129661 0.1 1011198
09:00+25всв238098 0.1 1012662
12:00+28всв346626 1.3 10101150
15:00+26всв357339 4.4 1008431
18:00+22вюв249021 6.5 1009105
21:00+21в2498100 0.4 1012149
13 апреля, вт
вт1300:00+21вюв1398100 0.7 1012133
03:00+21вюв1196100 0.0 101042
06:00+21в129792 0.0 101290
09:00+25всв347655 0.1 1013802
12:00+29всв455450 0.1 10111682
15:00+26всв457672 2.9 1010788
18:00+21в2595100 4.9 1012259
21:00+21в2497100 0.5 1014192
14 апреля, ср
ср1400:00+21в2498100 1.1 1013202
03:00+20в269868 0.6 1012320
06:00+21в259872 1.1 1013317
09:00+23в368755 0.5 1015601
12:00+25всв467955 2.5 1013835
15:00+24в458328 3.4 1011643
18:00+21в369549 5.8 1012314
21:00+21в249872 0.4 1013226
15 апреля, чт
чт1500:00+21в149854 0.9 1012238
03:00+21в139795 0.4 1011143
06:00+21в249895 1.0 1012208
09:00+23в248835 0.5 1014468
12:00+25св348191 4.8 1012701
15:00+24всв348482 7.6 1010564
18:00+21в249595 11.4 1011195
21:00+21вюв1297100 0.1 101381
16 апреля, пт
пт1600:00+20вюв1195100 0.1 101235
03:00+20вюв119555 0.0 101014
06:00+20юв119499 0.0 101249
09:00+24всв238063 0.1 1013663
12:00+28всв336562 0.6 10101158
15:00+25всв2282100 5.1 1009452
18:00+22вюв229390 10.8 101151
21:00+21юв1195100 0.3 101246